Погода в Кургане

Хотите узнать прогноз погоды в Кургане? Тогда Вам сюда: Погода в Кургане

Поиск расширенной информации на нашем сайте:

Полезная информация:

Новости сайта



02.01.2020
Опубликован Долгосрочный прогноз погоды по городам России и ближнего зарубежья на январь 2020 года.
Карты: Прогноз на январь и февраль 2020 года, Сравнение прогнозируемой аномалии приземной температуры воздуха на январь 2020 года по разным моделям.




Погода в Кургане - сегодня

Время (UTC), дата Ветер
(°,м/с) 
Видим.   Явления Облачность Т
(°С)
Тd
(°С)
f(%) Тe
(°С)
Pmin
(гПа)
dP
(гПа)
Po
(мм)
O2
(г/м3)
Тmin Tmax R s Состояние
почвы
15 27.03.20 310 (СЗ) 2{10}  10 км    3/3 1000 м 
[Sc]
+3.1 -4.9 56 +3  1021.8  1.8  759  303    +8.3       
18 27.03.20 260 (З) 10 км    ясно 
+0.4 -5.4 65 +1  1022.9  760  306           
21 27.03.20 190 (Ю) 10 км    3/0 средняя 
[Ac trans]
-1.5 -5 77 -1  1023.3  0.3  760  309           
00 28.03.20 тихо ()   10 км    ясно 
-3.7 -6.7 80 -4  1024.6  1.2  761  312           
03 28.03.20 тихо ()   20000 м    ясно 
-0.7 -6.4 65 -1  1026  1.5  762  309  -4.5      <0.5  мокрый или
старый снег
10-40% 
06 28.03.20 250 (З) 20000 м    ясно 
+5.2 -8.8 36 +4  1026  0.2  763  302           
09 28.03.20 280 (З) 4{10}  20000 м    ясно 
+7.6 -9.7 28 +6  1024.9  -1  762  300           
12 28.03.20 290 (З) 20000 м    4/0 средняя, верхняя 
[Ac trans|Ci fib]
+8.6 -9.5 27 +7  1024.1  -0.7  761  298           
15 28.03.20 190 (Ю) 10 км    8/0 средняя, верхняя 
[Ac trans|Ci fib]
+4.7 -5.6 47 +6  1024.1  -0.2  761  302    +8.8       
18 28.03.20 190 (Ю) 10 км    8/0 верхняя 
[Ci fib]
+1 -4.8 65 1024.3  0.1  761  306           
21 28.03.20 200 (Ю) 10 км    10/0 средняя, верхняя 
[Ac trans|Ci fib]
+1.3 -4.1 67 +1  1023.8  0.1  761  306           
00 29.03.20 200 (Ю) 10 км    10/0 средняя, верхняя 
[Ac trans|Ci fib]
+0.9 -3.7 71 1024  0.2  761  306           
03 29.03.20 210 (ЮЗ) 20000 м    3/0 верхняя 
[Ci fib]
+2 -3.2 68 +1  1024.1  0.2  761  305  +0.7        замёрзшая 
06 29.03.20 230 (ЮЗ) 20000 м    3/0 верхняя 
[Ci fib]
+8.5 -2.3 47 +8  1023.4  -0.5  761  298           
09 29.03.20 220 (ЮЗ) 20000 м    3/0 верхняя 
[Ci fib]
+11.8 -1.1 41 +11  1022.3  -1  760  294           
12 29.03.20 240 (ЮЗ) 20000 м    4/0 средняя, верхняя 
[Ac trans|Ci fib]
+11.7 -1.8 39 +11  1020.9  -1.4  759  293           
15 29.03.20 200 (Ю) 10 км    4/0 верхняя 
[Ci fib]
+6.4 -0.8 60 +5  1021  759  299    +12.4       
18 29.03.20 200 (Ю) 10 км    ясно 
+3.9 -0.2 75 +2  1020.6  -0.5  759  301           
21 29.03.20 200 (Ю) 10 км    ясно 
+1.3 -1.2 83 -1  1020.1  -0.6  758  304           
00 30.03.20 200 (Ю) 10 км    ясно 
+0.8 -2.2 80 -2  1019.9  -0.2  758  305           
03 30.03.20 200 (Ю) 20000 м    8/0 верхняя 
[Ci fib]
+1.2 -1.8 80 -1  1020.3  0.4  758  304  +0.1        замёрзшая 
06 30.03.20 210 (ЮЗ) 20000 м    10/0 верхняя 
[Ci fib]
+7.4 -0.6 57 +7  1020.1  758  298           
09 30.03.20 200 (Ю) 20000 м    10/0 верхняя 
[Ci fib]
+12.9 -0.4 40 +12  1019.1  -0.8  758  292           
12 30.03.20 210 (ЮЗ) 4{10}  20000 м    10/0 верхняя 
[Ci fib]
+12.7 +0.6 43 +12  1018.7  -0.5  757  291           
15 30.03.20 200 (Ю) 10 км    4/0 верхняя 
[Ci fib]
+8 -0.3 56 +7  1019.1  0.3  758  297    +13.6       
Время (UTC), дата Ветер
(°,м/с) 
Видим.   Явления Облачность Т
(°С)
Тd
(°С)
f(%) Тe
(°С)
Pmin
(гПа)
dP
(гПа)
Po
(мм)
O2
(г/м3)
Тmin Tmax R s Состояние
почвы

Для получения пояснительной информации подведите курсор к названию столбца.

ПОГОДА в Кургане - архив

Всё, что Вы хотите узнать о погоде в Кургане - удобно и подробно!

Выберите нужную дату (начиная с 1 января 2019* года) и нажмите кнопку "Найти".
Будут отображены архивные сводки погоды по пункту Курган, начиная с указанной даты.


Отображать данные в формате CSV (для использования в таблицах Excel)


Внимание! Наш архив погоды предназначен исключительно для личного некоммерческого использования в познавательных целях. Если Вам необходимы официальные справки о состоянии погоды (для производственных, юридических, коммерческих и т.п. целей), обращайтесь в органы Росгидромета.

*Примечание: данная дата относится к архиву по метеостанциям СССР (Россия, СНГ, Балтия).
Архив по метеостанциям Зарубежной Европы и Азии (кроме Китая) хранится 10 дней, по другим регионам земного шара (Китай, Африка, Америка, Австралия, Океания) - 1 день.

Курган - район местоположения метеостанции


Название, широта, долгота, высота метеостанции:
Курган 55.5°ш. 65.4°д. 74 м над ур. моря [Российская Федерация]

Дополнительная информация

В oтличие oт бoльшинства пoгoдных сайтoв мы публикуем пoдрoбную метеoинфoрмацию в детальнoм прoфессиoнальнoм фoрмате.

Характеристики температуры и влажнoсти вoздуха измеряются на высoте 2 м в тени вдали oт зданий и деревьев.
Скoрoсть ветра измеряется на высoте 10 м (на урoвне рoста челoвека скoрoсть ветра ниже в 1.5-2 раза). Если метеoстанция нахoдится в гoрoде или в лесу, тo скoрoсть ветра занижена на 2-4 м/с пo сравнению с oткрытым местoм. Скoрoсть ветра над акватoриями крупных рек и oзёр, а также на вершинах хoлмoв на 2-5 м/с выше, чем в oбычных услoвиях.
Атмoсфернoе давление в разных тoчках местнoсти мoжет значительнo oтличаться oт давления на метеoстанции, в зависимoсти oт услoвий рельефа (при пoдъёме на 10 м давление пoнижается примернo на 1 мм рт.ст.).